• Processing (Info)

  • MPEC 1999-V26 : 1999 VR6

    The following Minor Planet Electronic Circular may be linked-to from your own Web pages, but must not otherwise be redistributed electronically.

    A form allowing access to any MPEC is at the bottom of this page.


    Read MPEC 1999-V25 Read MPEC 1999-V27


    M.P.E.C. 1999-V26                                Issued 1999 Nov. 8, 22:51 UT
    
         The Minor Planet Electronic Circulars contain information on unusual
             minor planets and routine data on comets.  They are published
       on behalf of Commission 20 of the International Astronomical Union by the
              Minor Planet Center, Smithsonian Astrophysical Observatory,
                              Cambridge, MA 02138, U.S.A.
    
                 BMARSDEN@CFA.HARVARD.EDU or GWILLIAMS@CFA.HARVARD.EDU
              URL http://cfa-www.harvard.edu/iau/mpc.html  ISSN 1523-6714
    
                                       1999 VR6
    
    Observations:
         J99V06R* C1999 11 05.33648 02 27 26.31 +06 04 33.6          18.8        704
         J99V06R  C1999 11 05.35313 02 27 22.18 +06 03 03.6          18.9        704
         J99V06R  C1999 11 05.36983 02 27 18.01 +06 01 33.7          18.7        704
         J99V06R  C1999 11 05.97028 02 24 54.00 +05 05 01.3                      046
         J99V06R  C1999 11 05.97632 02 24 52.52 +05 04 26.4                      046
         J99V06R  C1999 11 05.97779 02 24 52.06 +05 04 15.3          17.3 R      046
         J99V06R  C1999 11 05.97888 02 24 51.75 +05 04 09.2                      046
         J99V06R  C1999 11 05.98420 02 24 50.27 +05 03 39.2                      046
         J99V06R  C1999 11 05.98818 02 24 49.30 +05 03 15.5                      046
         J99V06R  C1999 11 05.99365 02 24 47.87 +05 02 43.1                      046
         J99V06R  C1999 11 05.99705 02 24 46.97 +05 02 23.4                      046
         J99V06R  C1999 11 05.99822 02 24 46.62 +05 02 17.3                      046
         J99V06R  C1999 11 05.99946 02 24 46.38 +05 02 09.8                      046
         J99V06R  C1999 11 06.15214 02 24 10.34 +04 47 13.3          18.3        704
         J99V06R  C1999 11 06.15238 02 24 10.26 +04 47 11.6          18.1        704
         J99V06R  C1999 11 06.16716 02 24 06.46 +04 45 43.7          18.5 R      853
         J99V06R  C1999 11 06.16799 02 24 06.20 +04 45 38.5          17.8 R      853
         J99V06R  C1999 11 06.16853 02 24 05.93 +04 45 35.1          18.6        704
         J99V06R  C1999 11 06.16877 02 24 05.82 +04 45 33.3          18.4        704
         J99V06R  C1999 11 06.17131 02 24 05.32 +04 45 18.8          18.0 R      853
         J99V06R  C1999 11 06.18484 02 24 01.51 +04 43 56.8          19.1        704
         J99V06R  C1999 11 06.18509 02 24 01.39 +04 43 54.9          18.9        704
         J99V06R  C1999 11 06.20118 02 23 56.97 +04 42 18.7          18.7        704
         J99V06R  C1999 11 06.20143 02 23 56.92 +04 42 16.9          18.7        704
         J99V06R  C1999 11 06.21750 02 23 52.49 +04 40 40.2          18.5        704
         J99V06R  C1999 11 06.21774 02 23 52.44 +04 40 38.9          18.2        704
         J99V06R  C1999 11 06.23537 02 23 47.59 +04 38 52.3          18.1        704
         J99V06R  C1999 11 06.23833 02 23 46.66 +04 38 37.7                      711
         J99V06R  C1999 11 06.24169 02 23 45.73 +04 38 16.9                      711
         J99V06R  C1999 11 06.24550 02 23 44.67 +04 37 53.8                      711
         J99V06R  C1999 11 06.25170 02 23 43.04 +04 37 12.6          18.5        704
         J99V06R  C1999 11 06.26247 02 23 40.07 +04 36 06.0                      719
         J99V06R  C1999 11 06.26805 02 23 38.51 +04 35 33.5          18.3        704
         J99V06R  C1999 11 06.26961 02 23 38.01 +04 35 23.3                      719
         J99V06R  C1999 11 06.27612 02 23 36.18 +04 34 43.5                      719
         J99V06R  C1999 11 06.28319 02 23 34.21 +04 34 00.5                      719
         J99V06R  C1999 11 06.28442 02 23 33.92 +04 33 53.2          19.1        704
         J99V06R  C1999 11 06.30070 02 23 29.41 +04 32 14.5          18.7        704
         J99V06R  C1999 11 07.22884 02 19 12.40 +02 51 25.5          17.9        704
         J99V06R  C1999 11 07.26134 02 19 02.14 +02 47 39.6          18.2        704
         J99V06R  C1999 11 07.26749 02 19 00.10 +02 46 58.2                      711
         J99V06R  C1999 11 07.27067 02 18 59.08 +02 46 35.7                      711
         J99V06R  C1999 11 07.27383 02 18 58.08 +02 46 13.7                      711
         J99V06R  C1999 11 07.27760 02 18 56.96 +02 45 45.7          18.0        704
         J99V06R  C1999 11 07.50515 02 17 50.09 +02 18 49.6          18.2 V      402
         J99V06R  C1999 11 07.50641 02 17 49.65 +02 18 40.6                      402
         J99V06R  C1999 11 07.50767 02 17 49.20 +02 18 31.0                      402
         J99V06R  C1999 11 07.50893 02 17 48.79 +02 18 22.7                      402
         J99V06R  C1999 11 08.01528 02 15 04.73 +01 15 05.8                      595
         J99V06R  C1999 11 08.01877 02 15 03.50 +01 14 40.6                      595
         J99V06R  C1999 11 08.03110 02 14 59.26 +01 13 04.0          18.0 V      595
         J99V06R  C1999 11 08.21558 02 14 00.31 +00 49 02.9          17.6 R      853
         J99V06R  C1999 11 08.21722 02 13 59.71 +00 48 49.6          17.7 R      853
         J99V06R  C1999 11 08.21850 02 13 59.24 +00 48 39.6          17.5 R      853
         J99V06R  C1999 11 08.56667 02 11 57.57 +00 01 09.4          18.0 V      360
         J99V06R  C1999 11 08.56892 02 11 56.71 +00 00 50.5                      360
         J99V06R  C1999 11 08.57118 02 11 55.86 +00 00 31.4                      360
    
    Observer details:
    046 Klet.  Observers J. Ticha, M. Tichy.  0.57-m f/5.2 reflector + CCD.
    360 Kuma Kogen.  Observer A. Nakamura.  0.60-m f/6.0 Ritchey-Chretien + CCD.
    402 Dynic Astronomical Observatory.  Observer A. Sugie.  0.60-m f/3.7 reflector
        + CCD.
    595 Farra d'Isonzo.  Observer E. Pettarin.  0.40-m f/4.5 reflector + CCD.
    704 Lincoln Laboratory ETS, New Mexico.  Observers M. Blythe, F. Shelly,
        M. Bezpalko, M. Elowitz, R. Huber.  Measurers J. Stuart, H. Viggh,
        R. Sayer.  1.0-m f/2.15 reflector + CCD.
    711 McDonald Observatory.  Observer P. J. Shelus.  0.76-m reflector + CCD.
    719 Etscorn Observatory.  Observer D. A. Klinglesmith III.  0.355-m
        Schmidt-Cassegrain + CCD.
    853 Biosphere 2 Observatory.  Observer G. J. Garradd.  0.5-m f/8.1 reflector
        + CCD.
    
    Orbital elements:
    1999 VR6                                                             PHA 0.048
    Epoch 1999 Oct. 29.0 TT = JDT 2451480.5                 Williams
    M 340.02235              (2000.0)            P               Q
    n   0.30310668     Peri.  293.83904     -0.83419652     -0.54543232
    a   2.1948544      Node   213.27419     +0.54437302     -0.79086468
    e   0.7581382      Incl.    8.52816     +0.08817126     -0.27755475
    P   3.25           H   21.1           G   0.15
    From 57 observations 1999 Nov. 5-8.
    
    Ephemeris:
    1999 VR6                 a,e,i = 2.19, 0.76, 9                   q = 0.5309
    Date    TT    R. A. (2000) Decl.     Delta      r     Elong.  Phase     V
    1999 10 29    02 46.60   +13 26.7    0.273    1.264   171.4     6.7    19.3
    1999 10 30    02 44.79   +12 45.1    0.260    1.251   172.8     5.7    19.1
    1999 10 31    02 42.79   +11 59.0    0.247    1.238   173.9     4.9    18.9
    1999 11 01    02 40.57   +11 07.9    0.234    1.226   174.7     4.3    18.8
    1999 11 02    02 38.09   +10 10.9    0.221    1.213   174.9     4.2    18.6
    1999 11 03    02 35.32   +09 07.2    0.209    1.200   174.2     4.8    18.5
    1999 11 04    02 32.22   +07 55.5    0.196    1.187   172.7     6.1    18.4
    1999 11 05    02 28.73   +06 34.6    0.184    1.174   170.8     7.8    18.3
    1999 11 06    02 24.79   +05 02.8    0.173    1.161   168.4     9.9    18.3
    1999 11 07    02 20.31   +03 18.0    0.161    1.148   165.7    12.3    18.2
    1999 11 08    02 15.19   +01 17.9    0.150    1.135   162.6    15.2    18.1
    1999 11 09    02 09.30   -01 00.7    0.139    1.122   159.1    18.4    18.0
    1999 11 10    02 02.45   -03 41.3    0.129    1.109   155.1    22.1    17.9
    1999 11 11    01 54.42   -06 48.1    0.119    1.095   150.6    26.3    17.9
    1999 11 12    01 44.90   -10 26.0    0.110    1.082   145.5    31.2    17.8
    1999 11 13    01 33.46   -14 39.6    0.101    1.069   139.6    36.9    17.8
    1999 11 14    01 19.55   -19 32.9    0.094    1.055   132.9    43.4    17.7
    1999 11 15    01 02.39   -25 06.5    0.087    1.042   125.3    50.8    17.8
    1999 11 16    00 40.94   -31 15.2    0.082    1.029   116.8    59.1    17.9
    1999 11 17    00 13.86   -37 43.8    0.079    1.015   107.5    68.3    18.0
    1999 11 18    23 39.70   -44 05.3    0.078    1.002    97.7    77.9    18.3
    1999 11 19    22 57.39   -49 43.3    0.078    0.988    87.8    87.7    18.6
    1999 11 20    22 07.45   -54 01.2    0.080    0.975    78.2    97.1    19.1
    1999 11 21    21 13.21   -56 37.2    0.085    0.961    69.4   105.9    19.6
    1999 11 22    20 20.21   -57 33.2    0.090    0.948    61.5   113.7    20.2
    1999 11 23    19 33.30   -57 12.1    0.097    0.934    54.5   120.6    20.8
    1999 11 24    18 54.54   -56 02.7    0.105    0.921    48.5   126.6    21.4
    1999 11 25    18 23.61   -54 28.8    0.114    0.907    43.3   131.8    22.1
    1999 11 26    17 59.16   -52 46.0    0.124    0.894    38.8   136.3    22.7
    1999 11 27    17 39.75   -51 03.1    0.134    0.881    34.9   140.1    23.3
    1999 11 28    17 24.17   -49 24.5    0.144    0.867    31.5   143.5    23.9
    
    Gareth V. Williams           (C) Copyright 1999 MPC           M.P.E.C. 1999-V26
    

    Read MPEC 1999-V25 Read MPEC 1999-V27


    MPEC number:

    Enter an MPEC number in one of the following forms:

    • 1997-B01 (the full form)
    • J97B01 (the packed version of the full form)
    • B01 (the abbreviated form)